This demonstration page uses our WeatherBlox Daily Observations layout. Learn more.

Hourly Observations for June 9, 2016

Temp ( °F °C ) Dew Point ( °F °C ) Humidity (%) Winds ( mph kmh ) Pressure ( in mb ) Visibility ( mi km ) Precip ( " mm )
12:15 am 00:15 Clear 76 24.7 53 11.8 45 45 S 14 22 29.65 1004 10 16.0934 0 0
12:35 am 00:35 Clear 76 24.5 53 11.8 45 45 S 14 22 29.68 1005 10 16.0934 0 0
12:55 am 00:55 Clear 75 24 54 12.1 47 47 S 15 24 29.68 1005 10 16.0934 0 0
1:15 am 01:15 Clear 74 23.6 54 12.2 49 49 S 15 24 29.68 1005 10 16.0934 0 0
1:35 am 01:35 Clear 74 23.6 54 12.1 49 49 SSW 15 24 29.68 1005 10 16.0934 0 0
1:55 am 01:55 Clear 75 23.9 54 12.1 48 48 SSW 13 20 29.68 1005 10 16.0934 0 0
2:15 am 02:15 Clear 76 24.2 54 12.1 47 47 SSW 14 22 29.68 1005 10 16.0934 0 0
2:35 am 02:35 Clear 76 24.5 54 12.1 46 46 SSW 21 33 29.68 1005 10 16.0934 0 0
2:55 am 02:55 Clear 76 24.2 54 12.2 47 47 SSW 14 22 29.68 1005 10 16.0934 0 0
3:15 am 03:15 Clear 74 23.3 55 12.5 51 51 SSW 10 17 29.68 1005 10 16.0934 0 0
3:35 am 03:35 Clear 73 23 55 12.5 52 52 SSW 12 19 29.68 1005 10 16.0934 0 0
3:55 am 03:55 Clear 73 22.5 54 12.3 53 53 SSW 13 20 29.68 1005 10 16.0934 0 0
4:15 am 04:15 Clear 72 22.2 54 12.3 54 54 S 13 20 29.68 1005 10 16.0934 0 0
4:35 am 04:35 Clear 71 21.9 54 12.3 55 55 S 13 20 29.68 1005 10 16.0934 0 0
4:55 am 04:55 Clear 71 21.6 54 12.2 55 55 SSW 14 22 29.68 1005 10 16.0934 0 0
5:15 am 05:15 Clear 70 21.2 54 12.3 57 57 S 14 22 29.68 1005 10 16.0934 0 0
5:35 am 05:35 Clear 69 20.7 54 12.3 59 59 S 13 20 29.71 1006 10 16.0934 0 0
5:55 am 05:55 Clear 69 20.5 54 12.2 59 59 S 14 22 29.71 1006 10 16.0934 0 0
6:15 am 06:15 Sunny 69 20.3 54 12.3 60 60 SSW 15 24 29.71 1006 10 16.0934 0 0
6:35 am 06:35 Sunny 68 20.1 55 12.5 62 62 SSW 13 20 29.71 1006 10 16.0934 0 0
6:55 am 06:55 Sunny 68 19.8 55 12.7 64 64 SSW 12 19 29.71 1006 10 16.0934 0 0
7:15 am 07:15 Sunny 68 20 56 13.1 65 65 SW 13 20 29.71 1006 10 16.0934 0 0
7:35 am 07:35 Sunny 69 20.3 56 13.5 65 65 SW 8 13 29.71 1006 10 16.0934 0 0
7:55 am 07:55 Sunny 69 20.8 57 13.9 65 65 SW 10 17 29.71 1006 10 16.0934 0 0
8:15 am 08:15 Sunny 71 21.5 58 14.2 63 63 SW 8 13 29.71 1006 10 16.0934 0 0
8:35 am 08:35 Sunny 72 22.2 58 14.5 62 62 SW 7 11 29.71 1006 10 16.0934 0 0
8:55 am 08:55 Sunny 74 23.2 58 14.4 58 58 SW 13 20 29.71 1006 10 16.0934 0 0
9:15 am 09:15 Sunny 74 23.1 57 14 57 57 SW 9 15 29.71 1006 10 16.0934 0 0
9:35 am 09:35 Sunny 76 24.3 58 14.6 55 55 SW 6 9 29.71 1006 10 16.0934 0 0
9:55 am 09:55 Sunny 78 25.6 58 14.5 50 50 SW 6 9 29.68 1005 10 16.0934 0 0
10:15 am 10:15 Sunny 79 26.1 59 14.9 50 50 SSW 9 15 29.68 1005 10 16.0934 0 0
10:35 am 10:35 Sunny 80 26.7 59 14.9 48 48 S 12 19 29.68 1005 10 16.0934 0 0
10:55 am 10:55 Sunny 82 27.5 59 14.9 46 46 S 10 17 29.68 1005 10 16.0934 0 0
11:15 am 11:15 Sunny 83 28.5 60 15.3 45 45 S 8 13 29.68 1005 10 16.0934 0 0
11:35 am 11:35 Sunny 83 28.5 58 14.7 43 43 S 10 17 29.68 1005 10 16.0934 0 0
11:55 am 11:55 Sunny 85 29.4 58 14.6 40 40 S 12 19 29.65 1004 10 16.0934 0 0
12:15 pm 12:15 Sunny 85 29.3 60 15.3 43 43 SSW 10 17 29.65 1004 10 16.0934 0 0
12:35 pm 12:35 Sunny 85 29.7 58 14.5 40 40 S 13 20 29.65 1004 10 16.0934 0 0
12:55 pm 12:55 Sunny 86 29.8 59 15 41 41 S 14 22 29.65 1004 10 16.0934 0 0
1:15 pm 13:15 Sunny 87 30.3 59 14.9 39 39 S 12 19 29.65 1004 10 16.0934 0 0
1:35 pm 13:35 Sunny 88 31 58 14.2 36 36 SSW 13 20 29.62 1003 10 16.0934 0 0
1:55 pm 13:55 Sunny 89 31.5 58 14.3 35 35 S 12 19 29.62 1003 10 16.0934 0 0
2:15 pm 14:15 Sunny 89 31.6 58 14.5 35 35 S 14 22 29.62 1003 10 16.0934 0 0
2:35 pm 14:35 Sunny 90 32.1 58 14.5 34 34 SSW 16 26 29.62 1003 10 16.0934 0 0
2:55 pm 14:55 Sunny 91 32.5 58 14.2 33 33 S 15 24 29.59 1002 10 16.0934 0 0
3:15 pm 15:15 Sunny 91 32.8 57 13.7 31 31 S 16 26 29.59 1002 10 16.0934 0 0
3:35 pm 15:35 Sunny 92 33.1 57 14.1 32 32 SSW 13 20 29.59 1002 10 16.0934 0 0
3:55 pm 15:55 Sunny 93 33.8 57 13.7 30 30 S 18 30 29.59 1002 10 16.0934 0 0
4:15 pm 16:15 Sunny 91 32.7 62 16.5 38 38 S 10 17 29.59 1002 10 16.0934 0 0
4:35 pm 16:35 Sunny 90 32.1 62 16.5 39 39 SSE 16 26 29.62 1003 10 16.0934 0 0
4:55 pm 16:55 Sunny 91 32.8 60 15.7 36 36 S 14 22 29.59 1002 10 16.0934 0 0
5:15 pm 17:15 Sunny 91 32.8 60 15.3 35 35 S 20 31 29.59 1002 10 16.0934 0 0
5:35 pm 17:35 Sunny 91 32.7 59 15.1 35 35 S 15 24 29.59 1002 10 16.0934 0 0
5:55 pm 17:55 Sunny 91 32.5 58 14.7 34 34 S 21 33 29.59 1002 10 16.0934 0 0
6:15 pm 18:15 Sunny 90 32.2 58 14.7 35 35 S 17 28 29.62 1003 10 16.0934 0 0
6:35 pm 18:35 Sunny 90 32 57 13.9 33 33 S 18 30 29.62 1003 10 16.0934 0 0
6:55 pm 18:55 Sunny 89 31.6 56 13.6 33 33 S 18 30 29.62 1003 10 16.0934 0 0
7:15 pm 19:15 Sunny 88 31.3 58 14.6 36 36 S 13 20 29.62 1003 10 16.0934 0 0
7:35 pm 19:35 Sunny 88 31 57 13.7 35 35 S 16 26 29.62 1003 10 16.0934 0 0
7:55 pm 19:55 Sunny 86 30.2 60 15.6 41 41 S 10 17 29.62 1003 10 16.0934 0 0
8:15 pm 20:15 Sunny 85 29.5 61 16 44 44 S 14 22 29.62 1003 10 16.0934 0 0
8:35 pm 20:35 Sunny 84 28.7 61 16.3 47 47 S 13 20 29.62 1003 10 16.0934 0 0
8:55 pm 20:55 Sunny 82 28 62 16.7 50 50 S 12 19 29.65 1004 10 16.0934 0 0
9:15 pm 21:15 Clear 81 27.3 63 17 53 53 S 9 15 29.65 1004 10 16.0934 0 0
9:35 pm 21:35 Clear 80 26.8 64 17.5 57 57 S 9 15 29.65 1004 10 16.0934 0 0
9:55 pm 21:55 Clear 80 26.5 64 17.8 59 59 S 10 17 29.65 1004 10 16.0934 0 0
10:15 pm 22:15 Clear 79 26.1 64 18 61 61 SSE 10 17 29.65 1004 10 16.0934 0 0
10:35 pm 22:35 Clear 78 25.3 65 18.3 65 65 SSE 9 15 29.65 1004 10 16.0934 0 0
10:55 pm 22:55 Clear 77 25.1 65 18.5 67 67 SSE 9 15 29.65 1004 10 16.0934 0 0
11:15 pm 23:15 Clear 77 25.2 65 18.4 66 66 SSE 12 19 29.68 1005 10 16.0934 0 0
11:35 pm 23:35 Clear 77 25.1 65 18.1 65 65 S 13 20 29.68 1005 10 16.0934 0 0
11:55 pm 23:55 Clear 77 25 64 18 65 65 S 10 17 29.68 1005 10 16.0934 0 0

Powered by AerisWeather